Weather History for KLFT - January, 2014

Change the Weather History Date:

Wednesday, January 1, 2014

  Actual Average Record
Temperature  
Mean Temperature 50 °F 52 °F  
Max Temperature 56 °F 62 °F 81 °F (1952)
Min Temperature 43 °F 43 °F 21 °F (1964)
Degree Days  
Heating Degree Days 15 13  
Month to date heating degree days 15 13  
Since 1 July heating degree days 731 567  
Moisture  
Dew Point 50 °F    
Average Humidity 92    
Maximum Humidity 100    
Minimum Humidity 83    
Precipitation  
Precipitation 0.20 in 0.17 in 1.71 in (1968)
Month to date precipitation 0.20 0.17  
Year to date precipitation 0.20 0.17  
Snow  
Snow 0.00 in 0.00 in 0.00 in ()
Month to date snowfall 0.0  
Since 1 July snowfall 0.0 0.0  
Snow Depth 0.00 in    
Sea Level Pressure  
Sea Level Pressure 30.14 in    
Wind  
Wind Speed 1 mph (East)    
Max Wind Speed 6 mph    
Max Gust Speed 10 mph    
Visibility 4 miles    
Events Rain    
T = Trace of Precipitation, MM = Missing Value Source: NWS Daily Summary

Daily Weather History Graph

Daily Weather History Graph

Search for Another Location

Airport or City:

Trip Planner

Search our weather history database for the weather conditions in past years. The results will help you decide how hot, cold, wet, or windy it might be!

Date:

Astronomy

Jan. 01, 2014 Rise Set
Actual Time 7:04 AM CST 5:18 PM CST
Civil Twilight 6:38 AM CST 5:45 PM CST
Nautical Twilight 6:08 AM CST 6:15 PM CST
Astronomical Twilight 5:38 AM CST 6:44 PM CST
Moon 6:59 AM CST (1/1) 5:58 PM CST (1/1)
Length of Visible Light 11h 07m
Length of Day
10h 14m
New Moon, 0% of the Moon is Illuminated
Jan 1
New Moon
Jan 7
First Quarter
Jan 15
Full
Jan 23
Last Quarter
Jan 30
New

Hourly Weather History & Observations

Time (CST) Temp. Windchill Dew Point Humidity Pressure Visibility Wind Dir Wind Speed Gust Speed Precip Events Conditions
12:53 AM 44.1 °F 42.5 °F 39.9 °F 85% 30.29 in 9.0 mi Variable 3.5 mph - N/A   Overcast
1:53 AM 43.0 °F 40.3 °F 41.0 °F 93% 30.28 in 7.0 mi SE 4.6 mph - N/A   Overcast
2:53 AM 44.1 °F - 41.0 °F 89% 30.29 in 6.0 mi Calm Calm - N/A   Mostly Cloudy
3:53 AM 43.0 °F - 41.0 °F 93% 30.25 in 5.0 mi Calm Calm - 0.00 in   Overcast
4:53 AM 44.1 °F - 42.1 °F 93% 30.24 in 5.0 mi Calm Calm - 0.01 in   Overcast
5:53 AM 44.1 °F - 43.0 °F 96% 30.25 in 3.0 mi Calm Calm - 0.02 in Rain Light Rain
6:53 AM 44.1 °F 42.5 °F 43.0 °F 96% 30.23 in 4.0 mi East 3.5 mph - 0.01 in   Overcast
7:12 AM 44.6 °F - 42.8 °F 93% 30.23 in 4.0 mi Calm Calm - N/A   Overcast
7:29 AM 44.6 °F 43.1 °F 42.8 °F 93% 30.24 in 4.0 mi NE 3.5 mph - N/A   Overcast
7:37 AM 44.6 °F - 42.8 °F 93% 30.23 in 2.5 mi Calm Calm - N/A   Overcast
7:53 AM 45.0 °F - 44.1 °F 97% 30.24 in 2.5 mi Calm Calm - 0.00 in Rain Light Rain
8:53 AM 46.0 °F 44.8 °F 45.0 °F 96% 30.23 in 3.0 mi Variable 3.5 mph - 0.01 in Rain Light Rain
9:18 AM 46.4 °F 44.3 °F 46.4 °F 100% 30.23 in 3.0 mi Variable 4.6 mph - 0.00 in   Overcast
9:40 AM 48.2 °F - 46.4 °F 93% 30.24 in 4.0 mi Calm Calm - 0.00 in   Overcast
9:49 AM 48.2 °F - 46.4 °F 93% 30.24 in 5.0 mi Calm Calm - 0.00 in   Overcast
9:53 AM 48.9 °F - 46.9 °F 93% 30.24 in 5.0 mi Calm Calm - 0.00 in   Overcast
10:19 AM 50.0 °F - 48.2 °F 94% 30.23 in 5.0 mi Calm Calm - N/A   Overcast
10:27 AM 50.0 °F - 48.2 °F 94% 30.24 in 5.0 mi Calm Calm - N/A   Overcast
10:51 AM 51.8 °F - 48.2 °F 88% 30.23 in 6.0 mi Calm Calm - N/A   Overcast
10:53 AM 51.1 °F - 48.0 °F 89% 30.23 in 6.0 mi Calm Calm - N/A   Overcast
11:53 AM 53.1 °F - 50.0 °F 89% 30.19 in 7.0 mi Calm Calm - N/A   Mostly Cloudy
12:53 PM 55.0 °F - 51.1 °F 86% 30.15 in 9.0 mi Calm Calm - N/A   Overcast
1:53 PM 55.9 °F - 51.1 °F 84% 30.12 in 5.0 mi Calm Calm - 0.00 in Rain Light Rain
2:09 PM 55.4 °F - 51.8 °F 88% 30.12 in 2.5 mi Calm Calm - 0.00 in Rain Light Rain
2:21 PM 55.4 °F - 53.6 °F 94% 30.12 in 2.5 mi SSE 3.5 mph - 0.01 in Rain Light Rain
2:31 PM 55.4 °F - 53.6 °F 94% 30.11 in 2.5 mi Calm Calm - 0.02 in Rain Light Rain
2:40 PM 55.4 °F - 53.6 °F 94% 30.11 in 2.5 mi Calm Calm - 0.02 in Rain Light Rain
2:53 PM 55.0 °F - 53.1 °F 93% 30.11 in 2.5 mi Calm Calm - 0.03 in Rain Light Rain
3:38 PM 55.4 °F - 53.6 °F 94% 30.08 in 1.5 mi Calm Calm - 0.00 in Rain Light Rain
3:49 PM 55.4 °F - 53.6 °F 94% 30.09 in 2.5 mi Calm Calm - 0.01 in   Overcast
3:53 PM 55.0 °F - 53.1 °F 93% 30.09 in 2.5 mi Calm Calm - 0.01 in   Overcast
3:55 PM 55.4 °F - 53.6 °F 94% 30.09 in 3.0 mi Calm Calm - N/A   Overcast
4:22 PM 53.6 °F - 53.6 °F 100% 30.08 in 3.0 mi Calm Calm - N/A   Overcast
4:53 PM 54.0 °F - 53.1 °F 97% 30.08 in 2.0 mi Calm Calm - 0.00 in Rain Light Rain
5:16 PM 53.6 °F - 53.6 °F 100% 30.07 in 2.0 mi Calm Calm - 0.01 in Rain Light Rain
5:20 PM 53.6 °F - 53.6 °F 100% 30.07 in 2.0 mi Calm Calm - 0.01 in Rain Light Rain
5:53 PM 54.0 °F - 53.1 °F 97% 30.05 in 2.0 mi Calm Calm - 0.01 in Rain Light Rain
6:00 PM 53.6 °F - 53.6 °F 100% 30.06 in 4.0 mi North 3.5 mph - 0.00 in   Overcast
6:31 PM 53.6 °F - 53.6 °F 100% 30.08 in 1.8 mi NW 3.5 mph - 0.02 in Rain Rain
6:53 PM 54.0 °F - 54.0 °F 100% 30.07 in 1.5 mi Calm Calm - 0.05 in Rain Light Rain
7:06 PM 53.6 °F - 53.6 °F 100% 30.07 in 2.0 mi Calm Calm - 0.01 in Rain Light Rain
7:23 PM 53.6 °F - 53.6 °F 100% 30.07 in 2.0 mi Calm Calm - 0.01 in   Overcast
7:44 PM 53.6 °F - 53.6 °F 100% 30.07 in 2.5 mi Calm Calm - 0.01 in Rain Light Rain
7:53 PM 54.0 °F - 54.0 °F 100% 30.08 in 2.0 mi Calm Calm - 0.01 in Rain Light Rain
8:07 PM 53.6 °F - 53.6 °F 100% 30.08 in 1.5 mi Calm Calm - 0.02 in Rain Light Rain
8:29 PM 53.6 °F - 53.6 °F 100% 30.07 in 2.5 mi Calm Calm - 0.03 in Rain Light Rain
8:39 PM 53.6 °F - 53.6 °F 100% 30.07 in 3.0 mi Calm Calm - 0.03 in   Overcast
8:53 PM 55.0 °F - 54.0 °F 96% 30.07 in 3.0 mi Calm Calm - 0.03 in   Overcast
9:35 PM 55.4 °F - 55.4 °F 100% 30.06 in 2.0 mi Calm Calm - 0.01 in Rain Light Rain
9:53 PM 55.0 °F - 55.0 °F 100% 30.06 in 1.8 mi ESE 3.5 mph - 0.01 in   Overcast
10:00 PM 55.4 °F - 55.4 °F 100% 30.06 in 2.5 mi Calm Calm - N/A   Overcast
10:08 PM 55.4 °F - 55.4 °F 100% 30.06 in 3.0 mi Calm Calm - N/A   Overcast
10:38 PM 55.4 °F - 55.4 °F 100% 30.04 in 4.0 mi Variable 3.5 mph - N/A   Mostly Cloudy
10:50 PM 55.4 °F - 55.4 °F 100% 30.05 in 3.0 mi SE 3.5 mph - N/A   Overcast
10:53 PM 55.9 °F - 55.0 °F 97% 30.05 in 3.0 mi Variable 3.5 mph - N/A   Overcast
11:13 PM 55.4 °F - 55.4 °F 100% 30.04 in 2.5 mi Calm Calm - N/A   Overcast
11:53 PM 55.9 °F - 55.0 °F 97% 30.03 in 2.5 mi Calm Calm - N/A   Overcast